Location: Unnamed
(47.6264°N, 122.3366°W)
Time: 12:14:05
(UTC-07:00)

UPPER FREE FLYER - Pass Details

Date: 12 August 2020
Orbit: 571 x 589 km, 97.7° (Epoch: 01 October)

Event Time Altitude Azimuth Distance (km) Brightness Sun altitude
Exits shadow 22:30:36 38° 117° (ESE) 882 ? -17.9°
Maximum altitude 22:31:40 49° 72° (ENE) 745 ? -18.1°
Drops below altitude 10° 22:35:39 10° 357° (N) 1,901 ? -18.5°
Sets 22:37:52 0° 352° (N) 2,808 ? -18.7°
